This is the latest recevied weather packets stored in our database for station/object K3HM. If no packets are shown the sender has not sent any weather packets the latest 10 day(s).
| Time | Temp. | Humidity | Pressure | Rain* | Wind** | Luminosity | Snow |
|---|---|---|---|---|---|---|---|
| 1777819159 | 6.67° C | 55% | 1017.2 hPa | 0 mm | - | 634 W/m² | - |
| 1777818855 | 6.11° C | 53% | 1017.2 hPa | 0 mm | - | 624 W/m² | - |
| 1777818551 | 5° C | 59% | 1017.1 hPa | 0 mm | - | 624 W/m² | - |
| 1777818249 | 5° C | 60% | 1017.1 hPa | 0 mm | - | 573 W/m² | - |
| 1777817945 | 5.56° C | 61% | 1017.1 hPa | 0 mm | - | 175 W/m² | - |
| 1777817643 | 6.11° C | 60% | 1016.9 hPa | 0 mm | - | 651 W/m² | - |
| 1777817339 | 6.11° C | 60% | 1017.1 hPa | 0 mm | - | 155 W/m² | - |
| 1777817036 | 6.11° C | 61% | 1017.2 hPa | 0 mm | - | 574 W/m² | - |
| 1777816732 | 5° C | 61% | 1017 hPa | 0 mm | - | 577 W/m² | - |
| 1777816429 | 5.56° C | 60% | 1017.2 hPa | 0 mm | - | 118 W/m² | - |
| 1777816127 | 5.56° C | 62% | 1017 hPa | 0 mm | - | 536 W/m² | - |
| 1777815825 | 5.56° C | 62% | 1017 hPa | 0 mm | - | 506 W/m² | - |
| 1777815522 | 5° C | 63% | 1017.1 hPa | 0 mm | - | 495 W/m² | - |
| 1777815219 | 4.44° C | 65% | 1017.1 hPa | 0 mm | - | 519 W/m² | - |
| 1777814915 | 4.44° C | 66% | 1017.1 hPa | 0 mm | - | 500 W/m² | - |
| 1777814612 | 5° C | 67% | 1017.1 hPa | 0 mm | - | 329 W/m² | - |
| 1777814309 | 4.44° C | 68% | 1016.9 hPa | 0 mm | - | 96 W/m² | - |
| 1777814006 | 4.44° C | 68% | 1016.8 hPa | 0 mm | - | 134 W/m² | - |
| 1777813703 | 4.44° C | 70% | 1017 hPa | 0 mm | - | 417 W/m² | - |
| 1777813401 | 4.44° C | 69% | 1017 hPa | 0 mm | - | 176 W/m² | - |
| 1777813098 | 3.89° C | 71% | 1017 hPa | 0 mm | - | 82 W/m² | - |
| 1777812796 | 4.44° C | 72% | 1017.1 hPa | 0 mm | - | 331 W/m² | - |
| 1777812491 | 3.89° C | 72% | 1016.9 hPa | 0 mm | - | 331 W/m² | - |
| 1777812190 | 3.89° C | 74% | 1017 hPa | 0 mm | - | 273 W/m² | - |
| 1777811888 | 3.89° C | 75% | 1016.9 hPa | 0 mm | - | 269 W/m² | - |
* Rain latest hour (hover to see other rain measurements)
** Current wind speed in m/s (hover to see current wind gust speed)